When you browse on this site, cookies collect data to enhance your experience and personalize the content and advertising you see.
Visit our Privacy Policy to learn more. By continuing to use the site, you agree to this use of cookies and data.
  • In Österreich
  • Länderverzeichnis
  • Für 7 Tage
  • Wassertemperatur
  • Satellitenkarten
  • Wetterkarte
  • News
  • Widgets
  • user-avatar
    Anmelden

    Stündliche Wetter Chaschuri

    Heute, 24 April, Mittwoch

    Zeit Temperatur Niederschläge Wind Luftdruck Luftfeuchtigkeit
    00:00 -2°C° 0 mm 0 m/S 617 mmHg 92%
    01:00 -2°C° 0 mm 0 m/S 617 mmHg 92%
    02:00 -2°C° 0 mm 0 m/S 617 mmHg 92%
    03:00 -1°C° 0 mm 1 m/S 617 mmHg 93%
    04:00 -1°C° 0 mm 1 m/S 617 mmHg 90%
    05:00 -1°C° 0 mm 1 m/S 617 mmHg 88%
    06:00 -1°C° 0 mm 1 m/S 618 mmHg 86%
    07:00 +1°C° 0 mm 1 m/S 618 mmHg 78%
    08:00 +3°C° 0 mm 1 m/S 618 mmHg 69%
    09:00 +3°C° 0 mm 2 m/S 619 mmHg 62%
    10:00 +4°C° 0 mm 2 m/S 619 mmHg 59%
    11:00 +5°C° 0 mm 2 m/S 619 mmHg 57%
    12:00 +6°C° 0 mm 2 m/S 619 mmHg 54%
    13:00 +6°C° 0.1 mm 2 m/S 619 mmHg 55%
    14:00 +6°C° 0.1 mm 2 m/S 618 mmHg 55%
    15:00 +6°C° 0.1 mm 2 m/S 618 mmHg 56%
    16:00 +5°C° 0.1 mm 2 m/S 618 mmHg 61%
    17:00 +5°C° 0.1 mm 2 m/S 618 mmHg 65%
    18:00 +4°C° 0.1 mm 2 m/S 617 mmHg 70%
    19:00 +4°C° 0 mm 1 m/S 617 mmHg 78%
    20:00 +2°C° 0 mm 1 m/S 617 mmHg 86%
    21:00 +1°C° 0 mm 1 m/S 617 mmHg 94%
    22:00 +1°C° 0 mm 1 m/S 617 mmHg 94%
    23:00 -1°C° 0 mm 0 m/S 617 mmHg 95%

    Morgen, 25 April, Donnerstag

    Zeit Temperatur Niederschläge Wind Luftdruck Luftfeuchtigkeit
    00:00 -1°C° 0 mm 0 m/S 617 mmHg 95%
    01:00 -2°C° 0 mm 0 m/S 617 mmHg 94%
    02:00 -2°C° 0 mm 0 m/S 617 mmHg 93%
    03:00 -2°C° 0 mm 1 m/S 617 mmHg 92%
    04:00 -1°C° 0 mm 1 m/S 617 mmHg 88%
    05:00 -1°C° 0 mm 1 m/S 617 mmHg 83%
    06:00 -1°C° 0 mm 1 m/S 617 mmHg 79%
    07:00 +2°C° 0 mm 1 m/S 618 mmHg 69%
    08:00 +4°C° 0 mm 1 m/S 619 mmHg 60%
    09:00 +6°C° 0 mm 1 m/S 619 mmHg 50%
    10:00 +8°C° 0 mm 1 m/S 619 mmHg 49%
    11:00 +9°C° 0 mm 1 m/S 620 mmHg 49%
    12:00 +10°C° 0 mm 1 m/S 620 mmHg 48%
    13:00 +10°C° 0 mm 1 m/S 619 mmHg 48%
    14:00 +10°C° 0 mm 1 m/S 619 mmHg 49%
    15:00 +10°C° 0 mm 1 m/S 619 mmHg 49%
    16:00 +9°C° 0.1 mm 1 m/S 618 mmHg 55%
    17:00 +7°C° 0.1 mm 2 m/S 618 mmHg 60%
    18:00 +6°C° 0.1 mm 2 m/S 618 mmHg 65%
    19:00 +6°C° 0 mm 1 m/S 617 mmHg 72%
    20:00 +4°C° 0 mm 1 m/S 617 mmHg 80%
    21:00 +2°C° 0 mm 1 m/S 617 mmHg 87%
    22:00 +2°C° 0 mm 1 m/S 617 mmHg 86%
    23:00 +2°C° 0 mm 1 m/S 617 mmHg 86%

    übermorgen, 26 April, Freitag

    Zeit Temperatur Niederschläge Wind Luftdruck Luftfeuchtigkeit
    00:00 +1°C° 0 mm 1 m/S 617 mmHg 85%
    01:00 +1°C° 0 mm 1 m/S 617 mmHg 84%
    02:00 +1°C° 0 mm 1 m/S 616 mmHg 82%
    03:00 -2°C° 0 mm 2 m/S 616 mmHg 81%
    04:00 -1°C° 0 mm 2 m/S 616 mmHg 78%
    05:00 -1°C° 0 mm 2 m/S 616 mmHg 76%
    06:00 -1°C° 0 mm 2 m/S 616 mmHg 73%
    07:00 +2°C° 0 mm 2 m/S 617 mmHg 66%
    08:00 +5°C° 0 mm 2 m/S 617 mmHg 59%
    09:00 +9°C° 0 mm 1 m/S 618 mmHg 52%
    10:00 +10°C° 0 mm 1 m/S 618 mmHg 50%
    11:00 +10°C° 0 mm 2 m/S 618 mmHg 47%
    12:00 +12°C° 0 mm 2 m/S 618 mmHg 45%
    13:00 +12°C° 0 mm 2 m/S 618 mmHg 45%
    14:00 +12°C° 0 mm 2 m/S 618 mmHg 46%
    15:00 +12°C° 0 mm 2 m/S 617 mmHg 47%
    16:00 +10°C° 0.1 mm 2 m/S 617 mmHg 52%
    17:00 +10°C° 0.1 mm 1 m/S 617 mmHg 57%
    18:00 +9°C° 0.1 mm 1 m/S 616 mmHg 62%
    19:00 +6°C° 0 mm 2 m/S 616 mmHg 68%
    20:00 +4°C° 0 mm 2 m/S 616 mmHg 74%
    21:00 +3°C° 0 mm 2 m/S 615 mmHg 79%
    22:00 +2°C° 0 mm 2 m/S 615 mmHg 79%
    23:00 +2°C° 0 mm 2 m/S 615 mmHg 80%

    27 April, Samstag

    Zeit Temperatur Niederschläge Wind Luftdruck Luftfeuchtigkeit
    00:00 +1°C° 0 mm 2 m/S 615 mmHg 80%
    01:00 +1°C° 0 mm 2 m/S 615 mmHg 80%
    02:00 -1°C° 0 mm 2 m/S 614 mmHg 80%
    03:00 -1°C° 0 mm 2 m/S 614 mmHg 79%
    04:00 -1°C° 0 mm 2 m/S 614 mmHg 79%
    05:00 -1°C° 0 mm 2 m/S 614 mmHg 78%
    06:00 -1°C° 0 mm 2 m/S 614 mmHg 77%
    07:00 +3°C° 0 mm 2 m/S 615 mmHg 68%
    08:00 +6°C° 0 mm 2 m/S 616 mmHg 59%
    09:00 +8°C° 0 mm 2 m/S 616 mmHg 51%
    10:00 +10°C° 0 mm 2 m/S 616 mmHg 47%
    11:00 +12°C° 0 mm 2 m/S 617 mmHg 43%
    12:00 +14°C° 0 mm 2 m/S 617 mmHg 39%
    13:00 +14°C° 0.1 mm 2 m/S 617 mmHg 40%
    14:00 +14°C° 0.1 mm 2 m/S 616 mmHg 40%
    15:00 +14°C° 0.1 mm 2 m/S 616 mmHg 40%
    16:00 +13°C° 0.2 mm 1 m/S 615 mmHg 45%
    17:00 +12°C° 0.2 mm 1 m/S 615 mmHg 50%
    18:00 +11°C° 0.2 mm 1 m/S 615 mmHg 56%
    19:00 +9°C° 0.1 mm 1 m/S 614 mmHg 60%
    20:00 +7°C° 0.1 mm 1 m/S 614 mmHg 65%
    21:00 +4°C° 0.1 mm 2 m/S 614 mmHg 70%
    22:00 +4°C° 0 mm 2 m/S 613 mmHg 70%
    23:00 +3°C° 0 mm 2 m/S 613 mmHg 70%

    28 April, Sonntag

    Zeit Temperatur Niederschläge Wind Luftdruck Luftfeuchtigkeit
    00:00 +3°C° 0 mm 2 m/S 613 mmHg 71%
    01:00 +2°C° 0 mm 2 m/S 613 mmHg 70%
    02:00 +2°C° 0 mm 2 m/S 612 mmHg 70%
    03:00 +1°C° 0 mm 2 m/S 612 mmHg 70%
    04:00 +1°C° 0 mm 2 m/S 612 mmHg 69%
    05:00 +2°C° 0 mm 2 m/S 612 mmHg 67%
    06:00 +2°C° 0 mm 2 m/S 612 mmHg 66%
    07:00 +5°C° 0 mm 2 m/S 613 mmHg 60%
    08:00 +8°C° 0 mm 2 m/S 614 mmHg 54%
    09:00 +12°C° 0 mm 2 m/S 614 mmHg 48%
    10:00 +13°C° 0 mm 2 m/S 614 mmHg 45%
    11:00 +14°C° 0 mm 2 m/S 614 mmHg 43%
    12:00 +15°C° 0 mm 2 m/S 615 mmHg 40%
    13:00 +14°C° 0.2 mm 2 m/S 614 mmHg 42%
    14:00 +14°C° 0.2 mm 2 m/S 614 mmHg 44%
    15:00 +14°C° 0.2 mm 2 m/S 613 mmHg 46%
    16:00 +13°C° 0.1 mm 2 m/S 613 mmHg 50%
    17:00 +12°C° 0.1 mm 1 m/S 613 mmHg 54%
    18:00 +12°C° 0.1 mm 1 m/S 613 mmHg 58%
    19:00 +10°C° 0 mm 1 m/S 612 mmHg 61%
    20:00 +8°C° 0 mm 1 m/S 612 mmHg 65%
    21:00 +6°C° 0 mm 1 m/S 612 mmHg 69%
    22:00 +5°C° 0 mm 2 m/S 612 mmHg 67%
    23:00 +5°C° 0 mm 2 m/S 612 mmHg 65%

    29 April, Montag

    Zeit Temperatur Niederschläge Wind Luftdruck Luftfeuchtigkeit
    00:00 +4°C° 0 mm 2 m/S 611 mmHg 63%
    01:00 +4°C° 0 mm 2 m/S 611 mmHg 63%
    02:00 +4°C° 0 mm 2 m/S 611 mmHg 62%
    03:00 +4°C° 0 mm 2 m/S 611 mmHg 62%
    04:00 +4°C° 0 mm 2 m/S 611 mmHg 64%
    05:00 +4°C° 0 mm 2 m/S 611 mmHg 66%
    06:00 +4°C° 0 mm 2 m/S 612 mmHg 68%
    07:00 +6°C° 0 mm 2 m/S 612 mmHg 63%
    08:00 +10°C° 0 mm 1 m/S 613 mmHg 58%
    09:00 +12°C° 0 mm 1 m/S 614 mmHg 52%
    10:00 +12°C° 0.1 mm 1 m/S 614 mmHg 52%
    11:00 +13°C° 0.1 mm 2 m/S 614 mmHg 52%
    12:00 +13°C° 0.1 mm 2 m/S 614 mmHg 52%
    13:00 +13°C° 0.3 mm 2 m/S 614 mmHg 55%
    14:00 +13°C° 0.3 mm 2 m/S 613 mmHg 58%
    15:00 +12°C° 0.3 mm 2 m/S 613 mmHg 60%
    16:00 +10°C° 0.3 mm 2 m/S 613 mmHg 67%
    17:00 +9°C° 0.3 mm 2 m/S 612 mmHg 74%
    18:00 +9°C° 0.3 mm 1 m/S 612 mmHg 81%
    19:00 +8°C° 0 mm 1 m/S 612 mmHg 84%
    20:00 +7°C° 0 mm 1 m/S 612 mmHg 88%
    21:00 +6°C° 0 mm 1 m/S 612 mmHg 91%
    22:00 +6°C° 0 mm 1 m/S 612 mmHg 90%
    23:00 +4°C° 0 mm 2 m/S 612 mmHg 89%
    Mehr zeigen